Location: Feydey
(46.3431°N, 7.0106°E)
Time: 05:57:31
(UTC+00:00)

Cosmos 1025 Rocket - Pass Details

Date: 20 June 2021
Orbit: 593 x 619 km, 82.5° (Epoch: 28 July)

Event Time Altitude Azimuth Distance (km) Brightness Sun altitude
Exits shadow 20:23:42 - 171° (S) 2,358 5.5 -8.1°
Reaches altitude 10° 20:24:40 10° 168° (SSE) 1,973 5.1 -8.2°
Maximum altitude 20:28:53 49° 94° (E) 798 3.3 -8.7°
Drops below altitude 10° 20:33:06 10° 20° (NNE) 1,977 6.1 -9.1°
Sets 20:35:22 0° 15° (NNE) 2,882 7.0 -9.4°
